FW4012 Weather Reports


time (UTC)temp
C
wind
direction
speed
KPH
gust
KPH
rain 1hr
cm
rain 24hr
cm
rain mn
cm
humidity
%
barometer
mb
20260507233726 9 21 0.0 0.0 0.00 0.20 0.00 90 1013.2
20260507233252 9 20 0.0 0.0 0.00 0.20 0.00 90 1013.2
20260507232750 9 20 0.0 0.0 0.00 0.20 0.00 90 1013.1
20260507232248 10 20 0.0 0.0 0.00 0.20 0.00 90 1013.3
20260507231727 10 20 0.0 1.6 0.00 0.20 0.00 90 1013.3
20260507231227 10 19 0.0 3.2 0.00 0.20 0.00 90 1013.3
20260507230803 10 19 1.6 3.2 0.00 0.20 0.00 90 1013.3
20260507230251 10 19 0.0 0.0 0.00 0.20 0.00 90 1013.4
20260507225809 10 19 0.0 0.0 0.00 0.41 0.00 89 1013.4
20260507225248 10 19 0.0 0.0 0.00 0.41 0.00 89 1013.3
20260507224727 10 19 0.0 0.0 0.00 0.41 0.00 89 1013.3
20260507224242 10 19 0.0 0.0 0.00 0.41 0.00 89 1013.4
20260507223741 10 19 0.0 0.0 0.00 0.41 0.00 89 1013.4
20260507223239 10 19 0.0 1.6 0.00 0.41 0.00 89 1013.3
20260507222740 10 19 0.0 1.6 0.00 0.41 0.00 89 1013.3
20260507222234 10 19 0.0 0.0 0.00 0.41 0.00 88 1013.3
20260507221734 10 19 0.0 0.0 0.00 0.41 0.00 88 1013.3
20260507221232 10 19 0.0 0.0 0.00 0.41 0.00 88 1013.3
20260507220733 10 19 0.0 1.6 0.00 0.41 0.00 88 1013.2
20260507220231 10 19 0.0 1.6 0.00 0.41 0.00 88 1013.2
20260507215731 10 19 0.0 3.2 0.00 0.51 0.10 88 1013.2
20260507215231 10 19 0.0 3.2 0.00 0.51 0.10 88 1013.1
20260507214759 10 19 0.0 3.2 0.00 0.51 0.10 88 1013.1
20260507214239 10 19 0.0 3.2 0.00 0.51 0.10 88 1013.1
20260507213736 10 19 1.6 3.2 0.00 0.51 0.10 87 1013.0
20260507213252 10 19 0.0 3.2 0.00 0.51 0.10 87 1013.0
20260507212730 10 19 0.0 3.2 0.00 0.51 0.10 87 1013.0
20260507212229 11 19 0.0 3.2 0.00 0.51 0.10 87 1012.9
20260507211728 11 19 0.0 0.0 0.00 0.51 0.10 87 1013.0
20260507211242 11 19 0.0 3.2 0.00 0.51 0.10 87 1012.9
20260507210740 11 19 0.0 3.2 0.00 0.51 0.10 87 1013.0
20260507210240 11 19 0.0 0.0 0.00 0.51 0.10 86 1012.9
20260507205739 11 19 0.0 0.0 0.00 0.61 0.10 86 1013.0
20260507205236 11 19 0.0 1.6 0.00 0.61 0.10 86 1013.0
20260507204735 11 19 0.0 6.4 0.00 0.61 0.10 86 1012.8
20260507204233 11 19 0.0 6.4 0.00 0.61 0.10 86 1012.7
20260507203729 11 18 0.0 3.2 0.00 0.61 0.10 86 1012.6
20260507203228 11 233 0.0 0.0 0.00 0.61 0.10 85 1012.7
20260507202756 11 233 0.0 0.0 0.00 0.61 0.10 85 1012.7
20260507202234 11 233 0.0 0.0 0.00 0.61 0.10 85 1012.6
20260507201750 11 233 0.0 0.0 0.00 0.61 0.10 85 1012.5
20260507201227 12 233 0.0 0.0 0.00 0.61 0.10 84 1012.4
20260507200755 12 233 0.0 0.0 0.00 0.61 0.10 84 1012.4
20260507200250 12 233 0.0 0.0 0.00 0.61 0.10 83 1012.4
20260507195730 12 233 0.0 0.0 0.00 0.61 0.10 83 1012.3
20260507195243 12 233 0.0 0.0 0.00 0.61 0.10 83 1012.1
20260507194725 12 233 0.0 0.0 0.00 0.61 0.10 82 1012.1
20260507194242 12 233 0.0 0.0 0.00 0.61 0.10 81 1012.1
20260507193742 12 233 0.0 0.0 0.00 0.61 0.10 81 1012.0
20260507193259 13 233 0.0 0.0 0.00 0.61 0.10 81 1011.9
20260507192733 13 233 0.0 0.0 0.00 0.61 0.10 80 1011.8
20260507192230 13 233 0.0 0.0 0.00 0.61 0.10 80 1011.7
20260507191800 13 233 0.0 0.0 0.00 0.61 0.10 79 1011.7
20260507191238 13 233 0.0 0.0 0.00 0.61 0.10 78 1011.6
20260507190753 14 233 0.0 0.0 0.00 0.61 0.10 77 1011.5
20260507190231 14 233 0.0 0.0 0.00 0.61 0.10 76 1011.5
20260507185731 15 233 0.0 0.0 0.00 2.39 0.10 75 1011.4
20260507185228 15 233 0.0 0.0 0.00 2.39 0.10 74 1011.4
20260507184746 15 233 0.0 0.0 0.00 2.39 0.10 74 1011.4
20260507184253 15 233 0.0 0.0 0.00 2.39 0.10 72 1011.3
20260507183730 16 233 0.0 0.0 0.00 2.39 0.10 71 1011.3
20260507183232 16 233 0.0 0.0 0.00 2.39 0.10 70 1011.3
20260507182732 17 233 0.0 0.0 0.00 2.39 0.10 70 1011.2
20260507182247 17 233 0.0 0.0 0.00 2.39 0.10 67 1011.2
20260507181741 17 233 0.0 1.6 0.00 2.39 0.10 65 1011.1
20260507181238 17 233 0.0 3.2 0.00 2.39 0.10 61 1011.0
20260507180736 18 233 1.6 4.8 0.00 2.39 0.10 60 1011.1
20260507180238 18 234 1.6 4.8 0.00 2.39 0.10 60 1011.0
20260507175729 18 231 3.2 6.4 0.00 3.71 0.10 58 1011.0
20260507175228 18 232 1.6 8.0 0.00 3.71 0.10 57 1010.9
20260507174729 18 219 1.6 8.0 0.00 3.71 0.10 56 1010.9
20260507174229 18 220 3.2 11.3 0.00 3.71 0.10 55 1010.7
20260507173727 19 229 4.8 11.3 0.00 3.71 0.10 55 1010.7
20260507173302 19 242 4.8 8.0 0.00 3.71 0.10 55 1010.7
20260507172739 20 148 4.8 11.3 0.00 3.71 0.10 54 1010.7
20260507172237 20 167 4.8 11.3 0.00 3.71 0.10 53 1010.6
20260507171732 20 208 4.8 9.7 0.00 3.71 0.10 51 1010.6
20260507171232 20 202 4.8 9.7 0.00 3.71 0.10 52 1010.6
20260507170732 21 227 3.2 11.3 0.00 3.71 0.10 51 1010.5
20260507170231 21 175 4.8 11.3 0.00 3.71 0.10 50 1010.6
20260507165730 21 201 4.8 12.9 0.00 3.71 0.10 51 1010.5
20260507165236 21 238 4.8 14.5 0.00 3.71 0.10 50 1010.5
20260507164755 21 244 8.0 14.5 0.00 3.71 0.10 51 1010.5
20260507164228 21 227 6.4 14.5 0.00 3.71 0.10 52 1010.6
20260507163729 21 206 8.0 14.5 0.00 3.71 0.10 51 1010.4
20260507163229 21 190 8.0 14.5 0.00 3.71 0.10 51 1010.4
20260507162729 21 203 8.0 11.3 0.00 3.71 0.10 48 1010.4
20260507162232 21 244 3.2 11.3 0.00 3.71 0.10 48 1010.4
20260507161752 21 280 3.2 12.9 0.00 3.71 0.10 47 1010.3
20260507161226 21 259 4.8 12.9 0.00 3.71 0.10 48 1010.4
20260507160734 21 221 4.8 8.0 0.00 3.71 0.10 49 1010.4
20260507160232 21 261 1.6 9.7 0.00 3.71 0.10 48 1010.3
20260507155731 21 32 0.0 11.3 0.00 3.71 0.10 49 1010.4
20260507155226 21 250 6.4 11.3 0.00 3.71 0.10 46 1010.3
20260507154813 21 246 4.8 12.9 0.00 3.71 0.10 48 1010.4
20260507154252 21 211 8.0 12.9 0.00 3.71 0.10 47 1010.4
20260507153811 21 190 6.4 12.9 0.00 3.71 0.10 51 1010.5
20260507153251 21 280 3.2 12.9 0.00 3.71 0.10 51 1010.3
20260507152750 21 249 8.0 12.9 0.00 3.71 0.10 48 1010.4
20260507152247 21 155 3.2 11.3 0.00 3.71 0.10 49 1010.3
20260507151747 21 199 4.8 14.5 0.00 3.71 0.10 51 1010.4
20260507151245 21 195 8.0 12.9 0.00 3.71 0.10 51 1010.4
20260507150746 22 168 3.2 8.0 0.00 3.71 0.10 51 1010.4
20260507150246 21 228 1.6 11.3 0.00 3.71 0.10 46 1010.4
20260507145742 21 207 3.2 11.3 0.00 3.71 0.10 50 1010.5
20260507145306 21 217 6.4 9.7 0.00 3.71 0.10 50 1010.6
20260507144742 21 296 4.8 9.7 0.00 3.71 0.10 50 1010.5
20260507144243 21 99 1.6 11.3 0.00 3.71 0.10 52 1010.5
20260507143810 20 121 1.6 11.3 0.00 3.71 0.10 53 1010.5
20260507143245 21 121 4.8 11.3 0.00 3.71 0.10 51 1010.6
20260507142741 21 250 4.8 11.3 0.00 3.71 0.10 51 1010.6
20260507142238 21 295 0.0 14.5 0.00 3.71 0.10 52 1010.5
20260507141736 21 243 9.7 14.5 0.00 3.71 0.10 50 1010.7
20260507141232 20 221 4.8 12.9 0.00 3.71 0.10 51 1010.6
20260507140754 20 331 6.4 12.9 0.00 3.71 0.10 51 1010.8
20260507140232 20 29 6.4 12.9 0.00 3.71 0.10 52 1010.8
20260507135731 21 202 1.6 12.9 0.00 4.80 0.10 51 1010.8
20260507135240 21 171 8.0 11.3 0.00 4.80 0.10 54 1010.8
20260507134739 21 126 3.2 14.5 0.00 4.80 0.10 53 1010.8
20260507134238 21 169 4.8 14.5 0.00 4.80 0.10 57 1011.0
20260507133737 21 165 6.4 12.9 0.00 4.80 0.10 55 1011.0
20260507133234 21 216 8.0 12.9 0.00 4.80 0.10 54 1011.0
20260507132731 21 306 4.8 11.3 0.00 4.80 0.10 57 1011.0
20260507132233 21 233 3.2 14.5 0.00 4.80 0.10 56 1011.0
20260507131733 20 207 6.4 16.1 0.00 4.80 0.10 59 1011.0
20260507131235 19 128 6.4 16.1 0.00 4.80 0.10 61 1011.1
20260507130756 19 223 6.4 16.1 0.00 4.80 0.10 58 1011.1
20260507130236 20 180 4.8 16.1 0.00 4.80 0.10 59 1011.4
20260507125730 20 232 6.4 16.1 0.00 8.10 0.10 56 1011.2
20260507125229 20 238 8.0 16.1 0.00 8.10 0.10 53 1011.2
20260507124757 20 257 8.0 12.9 0.00 8.10 0.10 56 1011.3
20260507124253 20 47 1.6 12.9 0.00 8.10 0.10 57 1011.3
20260507123726 20 247 4.8 16.1 0.00 8.10 0.10 59 1011.3
20260507123226 20 236 11.3 16.1 0.00 8.10 0.10 56 1011.3
20260507122726 20 234 8.0 16.1 0.00 8.10 0.10 59 1011.3
20260507122227 20 150 8.0 16.1 0.00 8.10 0.10 60 1011.3
20260507121741 20 187 8.0 17.7 0.00 8.10 0.10 64 1011.3
20260507121312 20 253 11.3 17.7 0.00 8.10 0.10 58 1011.3
20260507120749 18 180 4.8 11.3 0.00 8.10 0.10 61 1011.3
20260507120250 18 229 6.4 17.7 0.00 8.10 0.10 58 1011.3
20260507115749 19 238 9.7 17.7 0.00 8.10 0.10 57 1011.4
20260507115247 20 132 6.4 12.9 0.00 8.10 0.10 59 1011.4
20260507114724 19 226 3.2 17.7 0.00 8.10 0.10 57 1011.4
20260507114239 18 294 6.4 17.7 0.00 8.10 0.10 61 1011.4
20260507113738 18 134 6.4 12.9 0.00 8.10 0.10 66 1011.5
20260507113238 17 169 1.6 4.8 0.00 8.10 0.10 63 1011.6
20260507112739 18 177 0.0 16.1 0.00 8.10 0.10 63 1011.6
20260507112239 18 157 6.4 16.1 0.00 8.10 0.10 62 1011.7
20260507111735 18 286 3.2 11.3 0.00 8.10 0.10 63 1011.7
20260507111234 18 249 4.8 11.3 0.00 8.10 0.10 63 1011.7
20260507110755 17 256 6.4 11.3 0.00 8.10 0.10 66 1011.9
20260507110235 17 252 3.2 14.5 0.00 8.10 0.10 65 1011.9
20260507105733 17 221 8.0 14.5 0.00 8.41 0.10 66 1012.1
20260507105230 18 199 4.8 12.9 0.00 8.41 0.10 67 1012.1
20260507104724 17 296 4.8 8.0 0.00 8.41 0.10 69 1012.1
20260507104252 17 28 3.2 12.9 0.00 8.41 0.10 67 1012.2
20260507103750 17 346 8.0 12.9 0.00 8.41 0.10 69 1012.1
20260507103227 17 338 4.8 9.7 0.00 8.41 0.10 68 1012.2
20260507102727 17 293 4.8 9.7 0.00 8.41 0.10 67 1012.3
20260507102227 17 317 3.2 8.0 0.00 8.41 0.10 64 1012.3
20260507101745 18 322 4.8 6.4 0.00 8.41 0.10 67 1012.3
20260507101313 17 60 0.0 3.2 0.00 8.41 0.10 72 1012.3
20260507100749 16 145 1.6 4.8 0.00 8.41 0.10 71 1012.3
20260507100306 16 145 3.2 4.8 0.00 8.41 0.10 70 1012.4
20260507095742 16 111 0.0 9.7 0.00 8.41 0.10 70 1012.3
20260507095305 16 179 1.6 4.8 0.00 8.41 0.10 70 1012.4
20260507094802 16 230 0.0 8.0 0.00 8.41 0.10 71 1012.4
20260507094241 16 158 3.2 8.0 0.00 8.41 0.10 72 1012.5
20260507093737 16 196 1.6 8.0 0.00 8.41 0.10 70 1012.4
20260507093235 17 173 3.2 6.4 0.00 8.41 0.10 70 1012.4
20260507092804 17 172 1.6 11.3 0.00 8.41 0.10 67 1012.3
20260507092243 18 166 8.0 14.5 0.00 8.41 0.10 66 1012.3
20260507091738 18 128 3.2 14.5 0.00 8.41 0.10 67 1012.2
20260507091258 18 212 4.8 11.3 0.00 8.41 0.10 70 1012.3
20260507090737 17 129 3.2 9.7 0.00 8.41 0.10 70 1012.2
20260507090236 17 149 1.6 14.5 0.00 8.41 0.10 69 1012.4
20260507085735 17 140 4.8 14.5 0.00 8.41 0.10 68 1012.3
20260507085235 16 140 3.2 8.0 0.00 8.41 0.10 71 1012.3
20260507084754 16 68 3.2 6.4 0.00 8.41 0.10 68 1012.3
20260507084301 16 198 3.2 12.9 0.00 8.41 0.10 73 1012.3
20260507083738 16 140 6.4 12.9 0.00 8.41 0.10 74 1012.3
20260507083232 15 355 3.2 8.0 0.00 8.41 0.10 74 1012.2
20260507082752 15 91 4.8 9.7 0.00 8.41 0.10 74 1012.3
20260507082229 15 9 1.6 9.7 0.00 8.41 0.10 74 1012.2
20260507081728 15 53 4.8 8.0 0.00 8.41 0.10 75 1012.2
20260507081230 15 322 0.0 6.4 0.00 8.41 0.10 76 1012.2
20260507080732 15 9 4.8 6.4 0.00 8.41 0.10 76 1012.1
20260507080230 14 344 1.6 8.0 0.00 8.41 0.10 76 1012.1
20260507075729 15 346 4.8 12.9 0.00 8.51 0.10 77 1012.1
20260507075259 14 53 4.8 12.9 0.00 8.51 0.10 77 1012.1
20260507074738 14 14 3.2 8.0 0.00 8.51 0.10 77 1012.0
20260507074233 14 77 3.2 9.7 0.00 8.51 0.10 77 1012.0
20260507073733 15 74 4.8 9.7 0.00 8.51 0.10 80 1012.0
20260507073233 14 17 3.2 9.7 0.00 8.51 0.10 79 1012.0
20260507072751 14 9 6.4 14.5 0.00 8.51 0.10 82 1012.0
20260507072230 13 350 8.0 14.5 0.00 8.51 0.10 84 1012.0
20260507071731 12 338 8.0 12.9 0.00 8.51 0.10 84 1012.1
20260507071230 12 337 6.4 9.7 0.00 8.51 0.10 86 1012.1
20260507070759 12 319 6.4 14.5 0.00 8.51 0.10 86 1012.0
20260507070239 12 355 6.4 14.5 0.00 8.51 0.10 86 1012.0
20260507065756 12 341 6.4 14.5 0.00 8.71 0.10 87 1011.9
20260507065233 12 355 9.7 14.5 0.00 8.71 0.10 87 1012.0
20260507064733 11 5 8.0 14.5 0.00 8.71 0.10 87 1011.8
20260507064232 11 351 6.4 9.7 0.00 8.71 0.10 88 1011.7
20260507063731 11 29 6.4 12.9 0.00 8.71 0.10 88 1011.8
20260507063229 11 314 8.0 14.5 0.00 8.71 0.10 88 1011.7
20260507062800 11 355 6.4 14.5 0.00 8.71 0.10 88 1011.8
20260507062238 11 355 6.4 14.5 0.00 8.71 0.10 89 1011.7
20260507061738 11 29 4.8 16.1 0.00 8.71 0.10 89 1011.6
20260507061236 11 351 8.0 16.1 0.00 8.71 0.10 90 1011.6
20260507060729 11 49 6.4 8.0 0.00 8.71 0.10 90 1011.6
20260507060229 11 19 6.4 8.0 0.00 8.71 0.10 90 1011.6
20260507055749 11 345 4.8 6.4 0.00 8.79 0.10 91 1011.6
20260507055226 10 360 3.2 6.4 0.00 8.79 0.10 91 1011.5
20260507054752 10 342 3.2 6.4 0.00 8.79 0.10 91 1011.4
20260507054251 10 321 4.8 8.0 0.00 8.79 0.10 91 1011.4
20260507053750 10 360 4.8 8.0 0.00 8.79 0.10 92 1011.3
20260507053232 10 30 3.2 12.9 0.00 8.79 0.10 91 1011.3
20260507052729 10 11 8.0 12.9 0.00 8.79 0.10 92 1011.2
20260507052229 10 25 4.8 16.1 0.00 8.79 0.10 92 1011.2
20260507051724 10 27 6.4 16.1 0.00 8.79 0.10 92 1011.2
20260507051225 10 11 3.2 9.7 0.00 8.79 0.10 92 1011.1
20260507050843 10 355 4.8 9.7 0.00 8.79 0.10 92 1010.9
20260507050329 10 324 1.6 4.8 0.00 8.79 0.10 92 1011.0
20260507045733 10 360 1.6 4.8 0.00 8.89 0.10 92 1010.9
20260507045232 10 360 3.2 9.7 0.00 8.89 0.10 92 1010.9
20260507044731 10 336 4.8 6.4 0.00 8.89 0.10 92 1010.8
20260507044228 10 349 4.8 8.0 0.00 8.89 0.10 92 1010.7
20260507043726 10 355 3.2 6.4 0.00 8.89 0.10 92 1010.6
20260507043228 10 318 3.2 6.4 0.00 8.89 0.10 92 1010.6
20260507042727 10 344 4.8 6.4 0.00 8.89 0.10 92 1010.5
20260507042255 10 293 3.2 6.4 0.00 8.89 0.10 92 1010.3
20260507041752 10 303 1.6 12.9 0.00 8.89 0.10 92 1010.4
20260507041233 10 340 4.8 9.7 0.00 8.89 0.10 92 1010.4
20260507040732 10 349 4.8 9.7 0.00 8.89 0.10 92 1010.3
20260507040232 10 5 3.2 8.0 0.00 8.89 0.10 92 1010.4
20260507035732 10 321 4.8 9.7 0.00 11.91 0.10 92 1010.4
20260507035224 10 342 3.2 9.7 0.00 11.91 0.10 92 1010.3
20260507034812 10 344 4.8 9.7 0.00 11.91 0.10 92 1010.3
20260507034241 10 340 4.8 12.9 0.00 11.91 0.10 92 1010.2
20260507033741 10 360 6.4 12.9 0.00 11.91 0.10 92 1010.3
20260507033241 10 294 1.6 6.4 0.00 11.91 0.10 92 1010.3
20260507032742 10 355 3.2 6.4 0.00 11.91 0.10 92 1010.3
20260507032251 10 284 3.2 8.0 0.00 11.91 0.10 92 1010.1
20260507031751 10 343 4.8 9.7 0.00 11.91 0.10 92 1010.2
20260507031252 10 355 4.8 6.4 0.00 11.91 0.10 92 1010.2
20260507030725 10 322 3.2 8.0 0.00 11.91 0.10 92 1010.1
20260507030245 10 355 3.2 14.5 0.00 11.91 0.10 92 1010.2
20260507025729 10 333 6.4 14.5 0.00 14.91 0.10 92 1010.2
20260507025230 10 23 6.4 9.7 0.00 14.91 0.10 92 1010.3
20260507024729 10 20 4.8 14.5 0.00 14.91 0.10 92 1010.3
20260507024247 10 355 3.2 14.5 0.00 14.91 0.10 92 1010.2
20260507023726 10 26 6.4 9.7 0.00 14.91 0.10 92 1010.2
20260507023228 10 20 6.4 9.7 0.00 14.91 0.10 93 1010.3
20260507022754 10 28 6.4 11.3 0.00 14.91 0.10 93 1010.2
20260507022232 10 324 6.4 17.7 0.00 14.91 0.10 93 1010.3
20260507021732 10 33 6.4 17.7 0.00 14.91 0.10 93 1010.4
20260507021230 10 46 8.0 14.5 0.00 14.91 0.10 93 1010.4
20260507020731 10 69 4.8 14.5 0.00 14.91 0.10 93 1010.4
20260507020229 10 325 6.4 12.9 0.00 14.91 0.10 93 1010.3
20260507015730 10 15 6.4 12.9 0.00 14.91 0.10 93 1010.3
20260507015230 10 26 6.4 12.9 0.00 14.91 0.10 93 1010.3
20260507014753 10 22 4.8 8.0 0.00 14.91 0.10 93 1010.3
20260507014231 10 5 4.8 8.0 0.00 14.91 0.10 93 1010.2
20260507013730 10 350 4.8 8.0 0.00 14.91 0.10 93 1010.2
20260507013226 10 355 3.2 6.4 0.00 14.91 0.10 93 1010.2
20260507012751 10 22 3.2 6.4 0.00 14.91 0.10 93 1010.1
20260507012250 10 22 3.2 6.4 0.00 14.91 0.10 93 1010.1
20260507011747 10 245 1.6 4.8 0.00 14.91 0.10 93 1010.2
20260507011248 10 245 1.6 8.0 0.00 14.91 0.10 93 1010.1
20260507010749 10 334 1.6 9.7 0.00 14.91 0.10 92 1010.1
20260507010230 10 355 4.8 9.7 0.00 14.91 0.10 92 1010.0
20260507005749 10 10 4.8 8.0 0.00 15.01 0.10 92 1010.1
20260507005250 10 347 3.2 6.4 0.00 15.01 0.10 92 1010.1
20260507004751 10 322 3.2 6.4 0.00 15.01 0.10 92 1010.1
20260507004251 10 346 3.2 8.0 0.10 15.01 0.10 92 1010.0
20260507003748 10 332 3.2 9.7 0.10 15.01 0.10 92 1010.0
20260507003245 10 17 3.2 11.3 0.20 15.01 0.10 92 1009.9
20260507002741 10 11 3.2 11.3 0.20 15.01 0.10 92 1009.9
20260507002306 10 340 6.4 14.5 0.20 15.01 0.10 92 1009.9
20260507001738 10 11 4.8 20.9 0.20 15.01 0.10 92 1009.8
20260507001235 10 5 6.4 14.5 0.20 15.01 0.10 92 1010.0
20260507000725 10 24 4.8 9.7 0.20 15.01 0.10 92 1009.9
20260507000243 10 317 4.8 8.0 0.20 15.01 0.10 92 1010.1
20260506235811 10 351 4.8 8.0 0.20 15.01 0.10 92 1010.1
20260506235249 10 310 3.2 6.4 0.20 15.01 0.10 92 1010.1